FW0807 Weather Reports


Display with metric or nautical units.
time (UTC)temp
F
wind
direction
speed
MPH
gust
MPH
rain 1hr
in
rain 24hr
in
rain mn
in
humidity
%
barometer
mb
20260905212008 101 0.0 0.0 0.00 0.00 0.00 38 1011.0
20260905211528 100 0.0 0.0 0.00 0.00 0.00 39 1011.2
20260905211008 100 0.0 0.0 0.00 0.00 0.00 39 1011.2
20260905210508 100 0.0 0.0 0.00 0.00 0.00 39 1011.3
20260905210016 101 0.0 0.0 0.00 0.00 0.00 38 1011.4
20260905205508 102 0.0 0.0 0.00 0.00 0.00 36 1011.4
20260905205005 103 0.0 0.0 0.00 0.00 0.00 36 1011.4
20260905204520 103 0.0 0.0 0.00 0.00 0.00 36 1011.5
20260905204011 103 0.0 0.0 0.00 0.00 0.00 36 1011.6
20260905203509 104 0.0 0.0 0.00 0.00 0.00 34 1011.7
20260905203017 104 0.0 0.0 0.00 0.00 0.00 35 1011.8
20260905202510 103 0.0 0.0 0.00 0.00 0.00 36 1011.9
20260905202009 103 0.0 0.0 0.00 0.00 0.00 38 1011.9
20260905201523 102 0.0 0.0 0.00 0.00 0.00 37 1012.0
20260905201009 102 0.0 0.0 0.00 0.00 0.00 37 1012.1
20260905200513 102 0.0 0.0 0.00 0.00 0.00 37 1012.1
20260905200024 102 0.0 0.0 0.00 0.00 0.00 37 1012.2
20260905195506 104 0.0 0.0 0.00 0.00 0.00 37 1012.3
20260905195007 104 0.0 0.0 0.00 0.00 0.00 37 1012.4
20260905194517 103 0.0 0.0 0.00 0.00 0.00 37 1012.5
20260905194012 102 0.0 0.0 0.00 0.00 0.00 38 1012.7
20260905193511 103 0.0 0.0 0.00 0.00 0.00 37 1012.7
20260905193023 102 0.0 0.0 0.00 0.00 0.00 38 1012.8
20260905192512 102 0.0 0.0 0.00 0.00 0.00 37 1012.9
20260905192007 102 0.0 0.0 0.00 0.00 0.00 38 1012.9
20260905191523 102 0.0 0.0 0.00 0.00 0.00 38 1013.0
20260905191012 101 0.0 0.0 0.00 0.00 0.00 39 1013.1
20260905190514 101 0.0 0.0 0.00 0.00 0.00 38 1013.2
20260905190018 101 0.0 0.0 0.00 0.00 0.00 39 1013.2
20260905185511 101 0.0 0.0 0.00 0.00 0.00 39 1013.3
20260905185011 102 0.0 0.0 0.00 0.00 0.00 39 1013.3
20260905184517 102 0.0 0.0 0.00 0.00 0.00 39 1013.4
20260905184008 102 0.0 0.0 0.00 0.00 0.00 38 1013.5
20260905183511 102 0.0 0.0 0.00 0.00 0.00 39 1013.5
20260905183019 101 0.0 0.0 0.00 0.00 0.00 40 1013.6
20260905182508 101 0.0 0.0 0.00 0.00 0.00 39 1013.8
20260905182012 101 0.0 0.0 0.00 0.00 0.00 40 1013.8
20260905181525 101 0.0 0.0 0.00 0.00 0.00 41 1013.9
20260905181013 100 0.0 0.0 0.00 0.00 0.00 42 1013.8
20260905180511 97 0.0 0.0 0.00 0.00 0.00 44 1013.9
20260905180024 97 0.0 0.0 0.00 0.00 0.00 44 1013.9
20260905175513 97 0.0 0.0 0.00 0.00 0.00 44 1014.0
20260905175010 97 0.0 0.0 0.00 0.00 0.00 43 1014.0
20260905174528 98 0.0 0.0 0.00 0.00 0.00 43 1014.1
20260905174013 99 0.0 0.0 0.00 0.00 0.00 42 1014.1
20260905173511 98 0.0 0.0 0.00 0.00 0.00 43 1014.2
20260905173023 98 0.0 0.0 0.00 0.00 0.00 42 1014.2
20260905172508 99 0.0 0.0 0.00 0.00 0.00 42 1014.3
20260905172008 99 0.0 0.0 0.00 0.00 0.00 42 1014.4
20260905171531 100 0.0 0.0 0.00 0.00 0.00 42 1014.4
20260905171009 98 0.0 0.0 0.00 0.00 0.00 43 1014.4
20260905170514 98 0.0 0.0 0.00 0.00 0.00 42 1014.5
20260905170023 98 0.0 0.0 0.00 0.00 0.00 42 1014.6
20260905165509 99 0.0 0.0 0.00 0.00 0.00 42 1014.6
20260905165011 98 0.0 0.0 0.00 0.00 0.00 42 1014.7
20260905164526 98 0.0 0.0 0.00 0.00 0.00 43 1014.8
20260905164013 98 0.0 0.0 0.00 0.00 0.00 44 1014.9
20260905163512 97 0.0 0.0 0.00 0.00 0.00 44 1014.8
20260905163028 96 0.0 0.0 0.00 0.00 0.00 45 1014.9
20260905162512 96 0.0 0.0 0.00 0.00 0.00 46 1015.0
20260905162011 96 0.0 0.0 0.00 0.00 0.00 46 1014.9
20260905161519 97 0.0 0.0 0.00 0.00 0.00 46 1015.0
20260905161015 97 0.0 0.0 0.00 0.00 0.00 46 1015.1
20260905160507 96 0.0 0.0 0.00 0.00 0.00 47 1015.1
20260905160027 96 0.0 0.0 0.00 0.00 0.00 47 1015.0
20260905155512 97 0.0 0.0 0.00 0.00 0.00 46 1015.1
20260905155014 96 0.0 0.0 0.00 0.00 0.00 47 1015.1
20260905154524 97 0.0 0.0 0.00 0.00 0.00 46 1015.1
20260905154012 96 0.0 0.0 0.00 0.00 0.00 48 1015.2
20260905153513 95 0.0 0.0 0.00 0.00 0.00 51 1015.2
20260905153027 95 0.0 0.0 0.00 0.00 0.00 52 1015.2
20260905152513 95 0.0 0.0 0.00 0.00 0.00 53 1015.2
20260905152013 94 0.0 0.0 0.00 0.00 0.00 53 1015.2
20260905151531 93 0.0 0.0 0.00 0.00 0.00 55 1015.2
20260905151012 93 0.0 0.0 0.00 0.00 0.00 56 1015.2
20260905150511 93 0.0 0.0 0.00 0.00 0.00 56 1015.3
20260905150025 93 0.0 0.0 0.00 0.00 0.00 56 1015.3
20260905145514 93 0.0 0.0 0.00 0.00 0.00 57 1015.3
20260905145014 92 0.0 0.0 0.00 0.00 0.00 59 1015.3
20260905144528 91 0.0 0.0 0.00 0.00 0.00 58 1015.2
20260905144012 91 0.0 0.0 0.00 0.00 0.00 60 1015.2
20260905143510 91 0.0 0.0 0.00 0.00 0.00 61 1015.2
20260905143030 89 0.0 0.0 0.00 0.00 0.00 62 1015.2
20260905142513 89 0.0 0.0 0.00 0.00 0.00 64 1015.1
20260905142016 88 0.0 0.0 0.00 0.00 0.00 65 1015.2
20260905141528 87 0.0 0.0 0.00 0.00 0.00 66 1015.2
20260905141011 87 0.0 0.0 0.00 0.00 0.00 69 1015.2
20260905140507 85 0.0 0.0 0.00 0.00 0.00 70 1015.2
20260905140016 84 0.0 0.0 0.00 0.00 0.00 71 1015.3
20260905135511 83 0.0 0.0 0.00 0.00 0.00 72 1015.3
20260905135008 83 0.0 0.0 0.00 0.00 0.00 73 1015.3
20260905134518 83 0.0 0.0 0.00 0.00 0.00 73 1015.3
20260905134014 82 0.0 0.0 0.00 0.00 0.00 75 1015.2
20260905133512 81 0.0 0.0 0.00 0.00 0.00 77 1015.2
20260905133013 80 0.0 0.0 0.00 0.00 0.00 79 1015.2
20260905132509 79 0.0 0.0 0.00 0.00 0.00 80 1015.1
20260905132014 78 0.0 0.0 0.00 0.00 0.00 81 1015.2
20260905131527 77 0.0 0.0 0.00 0.00 0.00 82 1015.1
20260905131011 77 0.0 0.0 0.00 0.00 0.00 83 1015.1
20260905130512 76 0.0 0.0 0.00 0.00 0.00 85 1015.0
20260905130014 75 0.0 0.0 0.00 0.00 0.00 87 1015.0
20260905125510 74 0.0 0.0 0.00 0.00 0.00 89 1015.0
20260905125011 73 0.0 0.0 0.00 0.00 0.00 90 1015.0
20260905124524 73 0.0 0.0 0.00 0.00 0.00 90 1014.9
20260905124010 72 0.0 0.0 0.00 0.00 0.00 91 1014.9
20260905123509 71 0.0 0.0 0.00 0.00 0.00 91 1014.8
20260905123024 71 0.0 0.0 0.00 0.00 0.00 92 1014.7
20260905122517 71 0.0 0.0 0.00 0.00 0.00 91 1014.7
20260905122006 71 0.0 0.0 0.00 0.00 0.00 92 1014.6
20260905121531 70 0.0 0.0 0.00 0.00 0.00 92 1014.7
20260905121014 70 0.0 0.0 0.00 0.00 0.00 92 1014.7
20260905120514 70 0.0 0.0 0.00 0.00 0.00 92 1014.6
20260905120026 71 0.0 0.0 0.00 0.00 0.00 91 1014.6
20260905115515 71 0.0 0.0 0.00 0.00 0.00 91 1014.5
20260905115014 71 0.0 0.0 0.00 0.00 0.00 91 1014.5
20260905114516 71 0.0 0.0 0.00 0.00 0.00 91 1014.4
20260905114009 71 0.0 0.0 0.00 0.00 0.00 91 1014.4
20260905113511 71 0.0 0.0 0.00 0.00 0.00 91 1014.4
20260905113021 71 0.0 0.0 0.00 0.00 0.00 92 1014.4
20260905112510 70 0.0 0.0 0.00 0.00 0.00 92 1014.3
20260905112013 70 0.0 0.0 0.00 0.00 0.00 92 1014.2
20260905111529 70 0.0 0.0 0.00 0.00 0.00 91 1014.3
20260905111006 70 0.0 0.0 0.00 0.00 0.00 91 1014.3
20260905110503 71 0.0 0.0 0.00 0.00 0.00 91 1014.3
20260905110008 71 0.0 0.0 0.00 0.00 0.00 91 1014.4
20260905105508 71 0.0 0.0 0.00 0.00 0.00 91 1014.4
20260905105011 71 0.0 0.0 0.00 0.00 0.00 91 1014.4
20260905104504 70 0.0 0.0 0.00 0.00 0.00 91 1014.4
20260905104004 71 0.0 0.0 0.00 0.00 0.00 91 1014.4
20260905103509 71 0.0 0.0 0.00 0.00 0.00 91 1014.3
20260905103006 71 0.0 0.0 0.00 0.00 0.00 91 1014.4
20260905102503 71 0.0 0.0 0.00 0.00 0.00 90 1014.4
20260905102006 71 0.0 0.0 0.00 0.00 0.00 90 1014.4
20260905101504 72 0.0 0.0 0.00 0.00 0.00 90 1014.5
20260905101002 72 0.0 0.0 0.00 0.00 0.00 90 1014.5
20260905100504 72 0.0 0.0 0.00 0.00 0.00 90 1014.5
20260905100008 71 0.0 0.0 0.00 0.00 0.00 90 1014.5
20260905095506 71 0.0 0.0 0.00 0.00 0.00 90 1014.4
20260905095004 71 0.0 0.0 0.00 0.00 0.00 90 1014.3
20260905094513 71 0.0 0.0 0.00 0.00 0.00 90 1014.4
20260905094007 71 0.0 0.0 0.00 0.00 0.00 89 1014.4
20260905093503 71 0.0 0.0 0.00 0.00 0.00 89 1014.4
20260905093010 72 0.0 0.0 0.00 0.00 0.00 89 1014.4
20260905092509 72 0.0 0.0 0.00 0.00 0.00 90 1014.4
20260905092008 72 0.0 0.0 0.00 0.00 0.00 90 1014.4
20260905091509 71 0.0 0.0 0.00 0.00 0.00 90 1014.3
20260905091007 71 0.0 0.0 0.00 0.00 0.00 89 1014.3
20260905090502 71 0.0 0.0 0.00 0.00 0.00 89 1014.3
20260905090005 72 0.0 0.0 0.00 0.00 0.00 90 1014.2
20260905085504 72 0.0 0.0 0.00 0.00 0.00 90 1014.2
20260905085003 72 0.0 0.0 0.00 0.00 0.00 90 1014.1
20260905084509 71 0.0 0.0 0.00 0.00 0.00 89 1014.2
20260905084003 72 0.0 0.0 0.00 0.00 0.00 89 1014.2
20260905083508 72 0.0 0.0 0.00 0.00 0.00 89 1014.1
20260905083013 72 0.0 0.0 0.00 0.00 0.00 88 1014.1
20260905082503 72 0.0 0.0 0.00 0.00 0.00 88 1014.1
20260905082003 72 0.0 0.0 0.00 0.00 0.00 88 1014.1
20260905081518 72 0.0 0.0 0.00 0.00 0.00 88 1014.1
20260905081012 72 0.0 0.0 0.00 0.00 0.00 88 1014.1
20260905080503 73 0.0 0.0 0.00 0.00 0.00 88 1014.1
20260905080019 73 0.0 0.0 0.00 0.00 0.00 88 1014.1
20260905075511 73 0.0 0.0 0.00 0.00 0.00 88 1014.0
20260905075003 73 0.0 0.0 0.00 0.00 0.00 88 1014.1
20260905074506 73 0.0 0.0 0.00 0.00 0.00 88 1014.0
20260905074004 73 0.0 0.0 0.00 0.00 0.00 88 1014.1
20260905073504 73 0.0 0.0 0.00 0.00 0.00 88 1014.0
20260905073007 73 0.0 0.0 0.00 0.00 0.00 87 1014.0
20260905072505 73 0.0 0.0 0.00 0.00 0.00 87 1014.0
20260905072003 73 0.0 0.0 0.00 0.00 0.00 87 1014.0
20260905071506 73 0.0 0.0 0.00 0.00 0.00 87 1014.0
20260905071006 73 0.0 0.0 0.00 0.00 0.00 87 1014.0
20260905070508 73 0.0 0.0 0.00 0.00 0.00 87 1014.0
20260905070028 73 0.0 0.0 0.00 0.00 0.00 87 1014.0
20260905065503 73 0.0 0.0 0.00 0.00 0.00 87 1014.1
20260905065013 73 0.0 0.0 0.00 0.00 0.00 86 1014.1
20260905064524 73 0.0 0.0 0.00 0.00 0.00 86 1014.1
20260905064004 73 0.0 0.0 0.00 0.00 0.00 87 1014.2
20260905063506 73 0.0 0.0 0.00 0.00 0.00 87 1014.1
20260905063008 73 0.0 0.0 0.00 0.00 0.00 87 1014.3
20260905062504 73 0.0 0.0 0.00 0.00 0.00 87 1014.2
20260905062004 73 0.0 0.0 0.00 0.00 0.00 87 1014.2
20260905061514 73 0.0 0.0 0.00 0.00 0.00 87 1014.2
20260905061007 73 0.0 0.0 0.00 0.00 0.00 87 1014.2
20260905060507 74 0.0 0.0 0.00 0.00 0.00 87 1014.2
20260905060013 74 0.0 0.0 0.00 0.00 0.00 87 1014.3
20260905055510 74 0.0 0.0 0.00 0.00 0.00 88 1014.2
20260905055011 74 0.0 0.0 0.00 0.00 0.00 87 1014.3
20260905054508 73 0.0 0.0 0.00 0.00 0.00 87 1014.3
20260905054008 73 0.0 0.0 0.00 0.00 0.00 87 1014.3
20260905053510 74 0.0 0.0 0.00 0.00 0.00 86 1014.4
20260905053027 74 0.0 0.0 0.00 0.00 0.00 86 1014.3
20260905052504 74 0.0 0.0 0.00 0.00 0.00 85 1014.4
20260905052006 75 0.0 0.0 0.00 0.00 0.00 83 1014.4
20260905051512 75 0.0 0.0 0.00 0.00 0.00 83 1014.5
20260905051003 75 0.0 0.0 0.00 0.00 0.00 82 1014.5
20260905050503 76 0.0 0.0 0.00 0.00 0.00 80 1014.5
20260905050017 76 0.0 0.0 0.00 0.00 0.00 80 1014.4
20260905045507 76 0.0 0.0 0.00 0.00 0.00 81 1014.4
20260905045003 76 0.0 0.0 0.00 0.00 0.00 80 1014.4
20260905044520 76 0.0 0.0 0.00 0.00 0.00 79 1014.4
20260905044010 77 0.0 0.0 0.00 0.00 0.00 78 1014.4
20260905043504 77 0.0 0.0 0.00 0.00 0.00 78 1014.5
20260905043018 77 0.0 0.0 0.00 0.00 0.00 78 1014.5
20260905042513 77 0.0 0.0 0.00 0.00 0.00 78 1014.3
20260905042017 77 0.0 0.0 0.00 0.00 0.00 78 1014.3
20260905041511 77 0.0 0.0 0.00 0.00 0.00 78 1014.4
20260905041003 78 0.0 0.0 0.00 0.00 0.00 77 1014.4
20260905040503 78 0.0 0.0 0.00 0.00 0.00 77 1014.4
20260905040010 78 0.0 0.0 0.00 0.00 0.00 76 1014.4
20260905035507 78 0.0 0.0 0.00 0.00 0.00 76 1014.4
20260905035007 78 0.0 0.0 0.00 0.00 0.00 75 1014.3
20260905034519 79 0.0 0.0 0.00 0.00 0.00 74 1014.3
20260905034008 79 0.0 0.0 0.00 0.00 0.00 74 1014.3
20260905033508 79 0.0 0.0 0.00 0.00 0.00 74 1014.4
20260905033027 79 0.0 0.0 0.00 0.00 0.00 75 1014.4
20260905032511 79 0.0 0.0 0.00 0.00 0.00 73 1014.4
20260905032007 80 0.0 0.0 0.00 0.00 0.00 72 1014.3
20260905031529 80 0.0 0.0 0.00 0.00 0.00 72 1014.3
20260905031013 81 0.0 0.0 0.00 0.00 0.00 71 1014.4
20260905030507 81 0.0 0.0 0.00 0.00 0.00 71 1014.4
20260905030029 81 0.0 0.0 0.00 0.00 0.00 71 1014.4
20260905025503 82 0.0 0.0 0.00 0.00 0.00 70 1014.3
20260905025005 82 0.0 0.0 0.00 0.00 0.00 69 1014.3
20260905024517 83 0.0 0.0 0.00 0.00 0.00 68 1014.3
20260905024006 82 0.0 0.0 0.00 0.00 0.00 69 1014.3
20260905023503 82 0.0 0.0 0.00 0.00 0.00 70 1014.2
20260905023013 81 0.0 0.0 0.00 0.00 0.00 71 1014.1
20260905022508 82 0.0 0.0 0.00 0.00 0.00 70 1014.1
20260905022003 82 0.0 0.0 0.00 0.00 0.00 70 1014.0
20260905021509 82 0.0 0.0 0.00 0.00 0.00 70 1013.9
20260905021003 82 0.0 0.0 0.00 0.00 0.00 69 1013.9
20260905020503 82 0.0 0.0 0.00 0.00 0.00 70 1013.8
20260905020006 83 0.0 0.0 0.00 0.00 0.00 68 1013.8
20260905015503 83 0.0 0.0 0.00 0.00 0.00 68 1013.7
20260905015006 83 0.0 0.0 0.00 0.00 0.00 67 1013.7
20260905014505 85 0.0 0.0 0.00 0.00 0.00 65 1013.7
20260905014004 85 0.0 0.0 0.00 0.00 0.00 64 1013.6
20260905013509 85 0.0 0.0 0.00 0.00 0.00 64 1013.6
20260905013029 85 0.0 0.0 0.00 0.00 0.00 65 1013.5
20260905012503 84 0.0 0.0 0.00 0.00 0.00 65 1013.4
20260905012006 85 0.0 0.0 0.00 0.00 0.00 65 1013.3
20260905011532 85 0.0 0.0 0.00 0.00 0.00 65 1013.3
20260905011012 85 0.0 0.0 0.00 0.00 0.00 65 1013.2
20260905010506 85 0.0 0.0 0.00 0.00 0.00 65 1013.1
20260905010016 85 0.0 0.0 0.00 0.00 0.00 66 1013.2
20260905005506 85 0.0 0.0 0.00 0.00 0.00 64 1013.2
20260905005004 86 0.0 0.0 0.00 0.00 0.00 64 1013.2
20260905004512 86 0.0 0.0 0.00 0.00 0.00 64 1013.2
20260905004004 86 0.0 0.0 0.00 0.00 0.00 64 1013.2
20260905003503 87 0.0 0.0 0.00 0.00 0.00 64 1013.1
20260905003010 87 0.0 0.0 0.00 0.00 0.00 62 1013.1
20260905002507 88 0.0 0.0 0.00 0.00 0.00 59 1013.0
20260905002006 90 0.0 0.0 0.00 0.00 0.00 59 1013.0
20260905001506 91 0.0 0.0 0.00 0.00 0.00 55 1012.9
20260905001006 91 0.0 0.0 0.00 0.00 0.00 53 1012.9
20260905000510 92 0.0 0.0 0.00 0.00 0.00 53 1012.9
20260905000026 94 0.0 0.0 0.00 0.00 0.00 51 1012.9
20260904235504 95 0.0 0.0 0.00 0.00 0.00 48 1012.9
20260904235008 96 0.0 0.0 0.00 0.00 0.00 47 1012.9
20260904234525 97 0.0 0.0 0.00 0.00 0.00 46 1012.9
20260904234003 97 0.0 0.0 0.00 0.00 0.00 46 1012.9
20260904233503 97 0.0 0.0 0.00 0.00 0.00 46 1012.9
20260904233008 97 0.0 0.0 0.00 0.00 0.00 46 1012.8
20260904232504 97 0.0 0.0 0.00 0.00 0.00 46 1012.7
20260904232004 98 0.0 0.0 0.00 0.00 0.00 46 1012.8
20260904231513 98 0.0 0.0 0.00 0.00 0.00 46 1012.7
20260904231008 98 0.0 0.0 0.00 0.00 0.00 46 1012.7
20260904230504 98 0.0 0.0 0.00 0.00 0.00 46 1012.7
20260904230015 98 0.0 0.0 0.00 0.00 0.00 45 1012.6
20260904225514 98 0.0 0.0 0.00 0.00 0.00 45 1012.6
20260904225014 98 0.0 0.0 0.00 0.00 0.00 45 1012.7
20260904224509 98 0.0 0.0 0.00 0.00 0.00 45 1012.8
20260904224007 98 0.0 0.0 0.00 0.00 0.00 45 1012.8
20260904223512 98 0.0 0.0 0.00 0.00 0.00 45 1012.8
20260904223008 98 0.0 0.0 0.00 0.00 0.00 45 1012.8
20260904222504 98 0.0 0.0 0.00 0.00 0.00 45 1012.8
20260904222004 98 0.0 0.0 0.00 0.00 0.00 45 1012.8
20260904221511 98 0.0 0.0 0.00 0.00 0.00 45 1012.8
20260904221004 98 0.0 0.0 0.00 0.00 0.00 45 1012.8
20260904220509 98 0.0 0.0 0.00 0.00 0.00 45 1012.8
20260904220018 98 0.0 0.0 0.00 0.00 0.00 45 1012.9
20260904215512 98 0.0 0.0 0.00 0.00 0.00 46 1012.9
20260904215007 98 0.0 0.0 0.00 0.00 0.00 46 1013.1
20260904214519 98 0.0 0.0 0.00 0.00 0.00 46 1013.2
20260904214011 97 0.0 0.0 0.00 0.00 0.00 47 1013.2
20260904213504 97 0.0 0.0 0.00 0.00 0.00 47 1013.3
20260904213017 96 0.0 0.0 0.00 0.00 0.00 49 1013.5
20260904212513 95 0.0 0.0 0.00 0.00 0.00 50 1013.5